{"data":{"norad_id":56794,"intl_designator":"2023-078AD","name":"STARLINK-6060","alt_names":[],"object_type":"PAYLOAD","status":"ACTIVE","operator":null,"country":"US","launch_date":"2023-05-31","launch_site_code":"AFWTR","launch_vehicle":null,"mission":null,"orbit_class":"UNKNOWN","rcs_meters":null,"size_class":null,"mass_kg":null,"dimensions":null,"purposes":["comms"],"wikipedia_slug":null,"has_3d_model":false,"image_url":null,"decayed_at":null,"tle_current":{"epoch":"2026-09-20T22:00:03.000096Z","epoch_age_seconds":78953,"freshness":"FRESH","line1":"1 56794U 23078AD  26263.91670139  .00003891  00000+0  27745-3 0  9994","line2":"2 56794  70.0004 192.1276 0004484 240.6362 310.7424 15.05401866  5625","mean_motion":15.05401866,"eccentricity":0.0004484,"inclination_deg":70.0004,"raan_deg":192.1276,"arg_perigee_deg":240.6362,"mean_anomaly_deg":310.7424,"bstar":0.00027745,"rev_number":562,"period_min":95.655521128469,"perigee_km":547.16568626006,"apogee_km":553.37908379656,"semimajor_km":6928.4093850283,"source":"CELESTRAK","updated_at":"2026-09-21T09:00:33.508746Z"}}}